TimeCST,TemperatureF,Dew PointF,Humidity,Sea Level PressureIn,VisibilityMPH,Wind Direction,Wind SpeedMPH,Gust SpeedMPH,PrecipitationIn,Events,Conditions,WindDirDegrees,DateUTC
12:52 AM,30.2,24.8,80,30.23,10.0,NW,9.2,-,N/A,,Overcast,310,2013-01-03 06:52:00
1:52 AM,30.9,25.0,79,30.27,10.0,NW,8.1,-,N/A,,Overcast,310,2013-01-03 07:52:00
2:52 AM,30.9,25.0,79,30.29,10.0,NW,9.2,-,N/A,,Overcast,310,2013-01-03 08:52:00
3:52 AM,30.9,25.0,79,30.30,10.0,NW,10.4,-,N/A,,Overcast,310,2013-01-03 09:52:00
4:52 AM,30.9,23.0,72,30.30,10.0,NW,17.3,-,N/A,,Overcast,310,2013-01-03 10:52:00
5:52 AM,30.0,23.0,75,30.33,10.0,NW,13.8,-,N/A,,Overcast,310,2013-01-03 11:52:00
6:30 AM,28.4,23.0,80,30.32,10.0,North,12.7,-,N/A,,Overcast,350,2013-01-03 12:30:00
6:43 AM,26.6,21.2,80,30.32,10.0,North,15.0,-,N/A,,Overcast,10,2013-01-03 12:43:00
6:52 AM,25.0,19.9,81,30.37,10.0,North,17.3,-,N/A,,Overcast,10,2013-01-03 12:52:00
7:42 AM,23.0,17.6,80,30.34,10.0,North,17.3,-,N/A,,Overcast,360,2013-01-03 13:42:00
7:52 AM,23.0,17.1,78,30.39,10.0,North,17.3,-,N/A,,Overcast,360,2013-01-03 13:52:00
8:52 AM,19.9,14.0,78,30.43,10.0,North,18.4,-,N/A,,Overcast,360,2013-01-03 14:52:00
9:52 AM,19.9,14.0,78,30.45,7.0,North,11.5,-,N/A,,Overcast,350,2013-01-03 15:52:00
10:52 AM,21.0,14.0,74,30.46,7.0,NNW,11.5,-,N/A,,Mostly Cloudy,340,2013-01-03 16:52:00
11:24 AM,21.2,14.0,74,30.42,10.0,NW,10.4,-,N/A,,Scattered Clouds,320,2013-01-03 17:24:00
11:52 AM,21.9,12.9,68,30.45,10.0,NW,10.4,-,N/A,,Mostly Cloudy,320,2013-01-03 17:52:00
12:27 PM,21.2,12.2,68,30.40,10.0,NW,10.4,-,N/A,,Scattered Clouds,310,2013-01-03 18:27:00
12:52 PM,21.9,12.0,66,30.43,10.0,NNW,12.7,-,N/A,,Scattered Clouds,330,2013-01-03 18:52:00
1:36 PM,21.2,12.2,68,30.39,10.0,North,10.4,-,N/A,,Mostly Cloudy,10,2013-01-03 19:36:00
1:52 PM,21.0,12.9,71,30.43,10.0,North,8.1,-,N/A,,Mostly Cloudy,10,2013-01-03 19:52:00
2:52 PM,21.9,14.0,72,30.42,10.0,NNE,3.5,-,N/A,,Overcast,30,2013-01-03 20:52:00
3:52 PM,21.9,14.0,72,30.43,10.0,West,5.8,-,N/A,,Overcast,280,2013-01-03 21:52:00
4:52 PM,23.0,14.0,68,30.43,10.0,WSW,3.5,-,N/A,,Mostly Cloudy,240,2013-01-03 22:52:00
5:19 PM,23.0,14.0,68,30.39,10.0,WSW,3.5,-,N/A,,Scattered Clouds,240,2013-01-03 23:19:00
5:52 PM,23.0,14.0,68,30.43,10.0,Calm,Calm,-,N/A,,Clear,0,2013-01-03 23:52:00
6:52 PM,19.9,12.9,74,30.42,10.0,South,4.6,-,N/A,,Clear,180,2013-01-04 00:52:00
7:52 PM,18.0,12.0,78,30.42,10.0,SSE,3.5,-,N/A,,Clear,160,2013-01-04 01:52:00
8:52 PM,16.0,10.9,81,30.41,10.0,SSE,5.8,-,N/A,,Clear,150,2013-01-04 02:52:00
9:52 PM,16.0,12.0,84,30.40,9.0,SE,5.8,-,N/A,,Clear,140,2013-01-04 03:52:00
10:52 PM,16.0,10.9,81,30.39,10.0,South,6.9,-,N/A,,Clear,170,2013-01-04 04:52:00
11:52 PM,16.0,10.9,81,30.38,10.0,SSE,4.6,-,N/A,,Clear,160,2013-01-04 05:52:00